Weather History for KBFM - December, 2012

Change the Weather History Date:

Monday, December 31, 2012

  Actual Average (KMOB) Record (KMOB)
Temperature  
Mean Temperature 46 °F 50 °F  
Max Temperature 59 °F 61 °F 78 °F (1988)
Min Temperature 34 °F 40 °F 14 °F (1983)
Degree Days  
Heating Degree Days 18 15  
Month to date heating degree days 405  
Since 1 July heating degree days 662  
Cooling Degree Days 0 0  
Month to date cooling degree days 15  
Year to date cooling degree days 2518  
Moisture  
Dew Point 42 °F    
Average Humidity 80    
Maximum Humidity 97    
Minimum Humidity 63    
Precipitation  
Precipitation 0.00 in 0.17 in 4.10 in (2002)
Month to date precipitation 5.06  
Year to date precipitation 66.15  
Snow  
Snow 0.00 in 0.00 in 0.00 in (2001)
Month to date snowfall T  
Since 1 July snowfall T  
Snow Depth -    
Sea Level Pressure  
Sea Level Pressure 30.27 in    
Wind  
Wind Speed 5 mph (NNE)    
Max Wind Speed 12 mph    
Max Gust Speed -    
Visibility 10 miles    
Events      
T = Trace of Precipitation, MM = Missing Value Source: NWS Daily Summary

Daily Weather History Graph

Daily Weather History Graph

Search for Another Location

Airport or City:

Trip Planner

Search our weather history database for the weather conditions in past years. The results will help you decide how hot, cold, wet, or windy it might be!

Date:

Astronomy

Dec. 31, 2012 Rise Set
Actual Time 6:49 AM CST 5:01 PM CST
Civil Twilight 6:22 AM CST 5:28 PM CST
Nautical Twilight 5:53 AM CST 5:58 PM CST
Astronomical Twilight 5:23 AM CST 6:27 PM CST
Moon 8:17 PM CST (12/31) 8:44 AM CST (12/31)
Length of Visible Light 11h 05m
Length of Day
10h 12m
Waning Gibbous, 90% of the Moon is Illuminated
Dec 31
Waning Gibbous
Jan 4
Last Quarter
Jan 11
New
Jan 18
First Quarter
Jan 26
Full

Hourly Weather History & Observations

Time (CST) Temp. Windchill Dew Point Humidity Pressure Visibility Wind Dir Wind Speed Gust Speed Precip Events Conditions
12:53 AM 44.1 °F 39.5 °F 32.0 °F 63% 30.37 in 10.0 mi ENE 8.1 mph - N/A   Clear
1:53 AM 37.0 °F 34.5 °F 30.9 °F 79% 30.36 in 10.0 mi North 3.5 mph - N/A   Clear
2:53 AM 36.0 °F 30.3 °F 30.9 °F 82% 30.35 in 10.0 mi NNW 6.9 mph - N/A   Clear
3:53 AM 34.0 °F 27.2 °F 32.0 °F 92% 30.35 in 10.0 mi NNW 8.1 mph - N/A   Clear
4:53 AM 35.1 °F 32.2 °F 32.0 °F 89% 30.34 in 10.0 mi NNW 3.5 mph - N/A   Partly Cloudy
5:53 AM 34.0 °F 28.0 °F 30.9 °F 89% 30.33 in 10.0 mi NNW 6.9 mph - N/A   Clear
6:53 AM 36.0 °F 30.3 °F 33.1 °F 89% 30.33 in 10.0 mi NNW 6.9 mph - N/A   Mostly Cloudy
7:53 AM 39.9 °F 35.8 °F 34.0 °F 79% 30.35 in 10.0 mi NNW 5.8 mph - N/A   Overcast
8:53 AM 44.1 °F 38.1 °F 34.0 °F 68% 30.36 in 10.0 mi NE 11.5 mph - N/A   Overcast
9:53 AM 46.0 °F 43.1 °F 37.0 °F 71% 30.37 in 10.0 mi North 5.8 mph - N/A   Overcast
10:53 AM 48.9 °F - 39.0 °F 69% 30.35 in 10.0 mi North 5.8 mph - N/A   Overcast
11:53 AM 51.1 °F - 41.0 °F 68% 30.31 in 10.0 mi North 4.6 mph - N/A   Overcast
12:53 PM 55.0 °F - 43.0 °F 64% 30.25 in 10.0 mi NNE 4.6 mph - N/A   Overcast
1:53 PM 57.9 °F - 46.9 °F 67% 30.22 in 10.0 mi NNE 4.6 mph - N/A   Overcast
2:53 PM 59.0 °F - 48.0 °F 67% 30.21 in 10.0 mi Calm Calm - N/A   Overcast
3:53 PM 59.0 °F - 48.9 °F 69% 30.21 in 10.0 mi Calm Calm - N/A   Overcast
4:53 PM 57.9 °F - 50.0 °F 75% 30.20 in 10.0 mi Calm Calm - N/A   Overcast
5:53 PM 55.0 °F - 50.0 °F 83% 30.20 in 10.0 mi East 3.5 mph - N/A   Partly Cloudy
6:53 PM 54.0 °F - 52.0 °F 93% 30.21 in 10.0 mi Calm Calm - N/A   Overcast
7:53 PM 55.9 °F - 52.0 °F 87% 30.20 in 10.0 mi NE 3.5 mph - N/A   Overcast
8:53 PM 54.0 °F - 52.0 °F 93% 30.17 in 10.0 mi SE 3.5 mph - N/A   Mostly Cloudy
9:53 PM 54.0 °F - 52.0 °F 93% 30.15 in 7.0 mi SE 3.5 mph - N/A   Mostly Cloudy
10:53 PM 54.0 °F - 53.1 °F 97% 30.14 in 6.0 mi SE 5.8 mph - N/A   Mostly Cloudy
11:53 PM 55.0 °F - 54.0 °F 96% 30.12 in 7.0 mi SSE 4.6 mph - N/A   Scattered Clouds